Rbgn^[z[y[W
メイン
   新天体発見情報
     Comet P/2010 A5 = P/2020 Y5 (LINEAR)
投稿するにはまず登録を

スレッド表示 | 古いものから 前のトピック | 次のトピック | 下へ
投稿者 スレッド
佐藤裕久
投稿日時: 2021-2-2 1:04
モデレータ
登録日: 2005-6-12
居住地: 日本
投稿: 2585
オンライン
Comet P/2010 A5 = P/2020 Y5 (LINEAR)

2020年12月23.5日UT、HaleakalaにあるPan-STARRS2 1.8-m Ritchey-Chretien反射望遠鏡で得た
21.5等〜21.7等の天体が小惑星センターでP/2010 A5 (IAUC 9108参照)の検出であると確認され
た。数週間遅れて2021年1月9.4日、Pan-STARRS1 1.8-m Ritchey-Chretien反射望遠鏡と1月10.4
日、Mt Lemmonサーベイの1.5-m 反射望遠鏡で検出していた。
野原秀憲氏(栃木県宇都宮市)は、1月19日、0.4-m f/3.8 アストログラフで20.4等〜20.7等と観
測した。

Pan-STARRSによる検出位置は次のとおり、

     2020 UT             R.A. (2000) Decl.       Mag.
     Dec. 23.48553    9 03 31.18   +13 24 51.1   21.7
          23.50727    9 03 30.73   +13 24 50.3   21.5
          23.51818    9 03 30.52   +13 24 49.8   21.7

     2021 UT             R.A. (2000) Decl.       Mag.
     Jan.  9.38227    8 55 15.47   +13 24 11.9   20.7
           9.39333    8 55 15.01   +13 24 12.5   20.8
           9.40454    8 55 14.57   +13 24 12.8   21.0

NK 1961およびICQ's 2020 Comet Handbookの中野主一氏の予報に対し、Delta(T)は、-0.007 day
であった。MPC 72851のG. V. Williamsの予報に対するDelta(T)は、+0.05 dayであった。
彗星年表2020の佐藤裕久の予報に対する修正値は、Delta(T) = -0.015 dayであった。

MPCの連結軌道要素と位置推算表は次のとおり

Orbital elements:
    P/2010 A5 (LINEAR)                                                          
Epoch 2010 May 4.0 TT = JDT 2455320.5                                           
T 2010 Apr. 19.31667 TT                                 Rudenko                 
q   1.7120429            (2000.0)            P               Q                  
n   0.08558095     Peri.  306.70711     -0.70739307     +0.69973656             
a   5.0997786      Node   277.94101     -0.61210364     -0.67707838             
e   0.6642907      Incl.    5.78439     -0.35344614     -0.22788948             
P  11.5                                                                         
From 672 observations 2010 Jan. 14-2021 Jan. 19, mean residual 0".5.            
                                                                                
    P/2010 A5 (LINEAR)                                                          
Epoch 2021 Nov. 2.0 TT = JDT 2459520.5                                          
T 2021 Oct. 17.56731 TT                                 Rudenko                 
q   1.7028932            (2000.0)            P               Q                  
n   0.08609259     Peri.  307.10067     -0.70604471     +0.70105532             
a   5.0795533      Node   277.65727     -0.61346555     -0.67610748             
e   0.6647553      Incl.    5.79746     -0.35378084     -0.22671593             
P  11.4                                                                         
From 672 observations 2010 Jan. 14-2021 Jan. 19, mean residual 0".5.            
                                                                                
    P/2010 A5 (LINEAR)                                                          
Epoch 2033 Mar. 24.0 TT = JDT 2463680.5                                         
T 2033 Apr. 2.97281 TT                                  Rudenko                 
q   1.6840418            (2000.0)            P               Q                  
n   0.08656503     Peri.  308.41584     -0.70151291     +0.70542193             
a   5.0610551      Node   276.70851     -0.61794019     -0.67290325             
e   0.6672548      Incl.    5.85364     -0.35500641     -0.22266817             
P  11.4                                                                         
From 672 observations 2010 Jan. 14-2021 Jan. 19, mean residual 0".5.            
                                                                                
    P/2010 A5 (LINEAR)                                                          
Epoch 2020 Dec. 17.0 TT = JDT 2459200.5                                         
T 2021 Oct. 17.53784 TT                                 Rudenko                 
q   1.7028396            (2000.0)            P               Q                  
n   0.08599532     Peri.  307.08825     -0.70611783     +0.70098099             
a   5.0833831      Node   277.66365     -0.61338904     -0.67617041             
e   0.6650184      Incl.    5.79783     -0.35376758     -0.22675808             
P  11.5                                                                         
From 672 observations 2010 Jan. 14-2021 Jan. 19, mean residual 0".5.            
                                                                                
Ephemeris:
Date    TT    R. A. (2000) Decl.     Delta      r    Elong.  Phase   m1
2020 12 30    09 01 02.8 +13 21 47   2.3932  3.2444   144.5    10.1  20.0
...
2021 01 14    08 52 00.3 +13 28 02   2.1950  3.1439   161.7     5.7  19.7
...
2021 01 22    08 45 34.5 +13 38 06   2.1147  3.0901   170.8     2.9  19.5
...
2021 01 28    08 40 16.1 +13 47 56   2.0669  3.0496   175.5     1.4  19.4
2021 01 29    08 39 21.4 +13 49 43   2.0599  3.0428   175.6     1.4  19.4
2021 01 30    08 38 26.4 +13 51 32   2.0533  3.0361   175.3     1.5  19.4
...
2021 02 05    08 32 52.8 +14 03 02   2.0200  2.9955   169.8     3.3  19.3
...
2021 02 13    08 25 34.3 +14 19 06   1.9922  2.9412   160.4     6.4  19.2
...
2021 02 28    08 13 50.0 +14 46 55   1.9870  2.8394   142.7    12.2  19.0

(MPEC 2021-B140、CBET 4928、oaa-comet 1539)

スレッド表示 | 古いものから 前のトピック | 次のトピック | トップ

投稿するにはまず登録を
 
© 1999 Tsutomu Seki.